This is the latest recevied weather packets stored in our database for station/object SV9TNF-2. If no packets are shown the sender has not sent any weather packets the latest 10 day(s).
| Time | Temp. | Humidity | Pressure | Rain* | Wind** | Luminosity | Snow |
|---|---|---|---|---|---|---|---|
| 1777960977 | 20° C | 61% | 1024.4 hPa | 0 mm | 4.47 m/s, 273° | - | - |
| 1777960676 | 19.44° C | 64% | 1024.4 hPa | 0 mm | 2.24 m/s, 282° | - | - |
| 1777960377 | 19.44° C | 64% | 1024.4 hPa | 0 mm | 1.79 m/s, 252° | - | - |
| 1777960077 | 20° C | 65% | 1023.7 hPa | 0 mm | 3.13 m/s, 274° | - | - |
| 1777959776 | 19.44° C | 65% | 1023.7 hPa | 0 mm | 1.34 m/s, 241° | - | - |
| 1777959476 | 18.89° C | 66% | 1023.7 hPa | 0 mm | 1.34 m/s, 255° | - | - |
| 1777959176 | 18.89° C | 66% | 1023.7 hPa | 0 mm | 1.34 m/s, 258° | - | - |
| 1777958876 | 18.89° C | 69% | 1023.7 hPa | 0 mm | 0 m/s | - | - |
| 1777958576 | 18.33° C | 71% | 1023.7 hPa | 0 mm | 0.45 m/s, 269° | - | - |
| 1777958276 | 17.78° C | 74% | 1023.7 hPa | 0 mm | 1.34 m/s, 221° | - | - |
| 1777957976 | 17.22° C | 76% | 1023.7 hPa | 0 mm | 4.47 m/s, 162° | - | - |
| 1777957676 | 16.67° C | 79% | 1023.7 hPa | 0 mm | 0 m/s | - | - |
| 1777957376 | 16.67° C | 81% | 1023.7 hPa | 0 mm | 1.34 m/s, 215° | - | - |
| 1777957076 | 15.56° C | 82% | 1023.4 hPa | 0 mm | 1.34 m/s, 194° | - | - |
| 1777956775 | 15.56° C | 83% | 1023.4 hPa | 0 mm | 1.79 m/s, 183° | - | - |
| 1777956475 | 14.44° C | 85% | 1023.4 hPa | 0 mm | 3.13 m/s, 186° | - | - |
| 1777956175 | 14.44° C | 85% | 1023.4 hPa | 0 mm | 4.02 m/s, 178° | - | - |
| 1777955875 | 14.44° C | 86% | 1023.4 hPa | 0 mm | 2.24 m/s, 180° | - | - |
| 1777955575 | 13.89° C | 87% | 1023.4 hPa | 0 mm | 2.68 m/s, 236° | - | - |
| 1777955275 | 13.33° C | 87% | 1023.4 hPa | 0 mm | 5.81 m/s, 223° | - | - |
| 1777954975 | 13.33° C | 87% | 1023.4 hPa | 0 mm | 3.13 m/s, 221° | - | - |
| 1777954675 | 12.78° C | 88% | 1023.4 hPa | 0 mm | 2.68 m/s, 186° | - | - |
| 1777954375 | 12.78° C | 88% | 1023.4 hPa | 0 mm | 2.68 m/s, 208° | - | - |
| 1777954075 | 12.22° C | 88% | 1023.4 hPa | 0 mm | 5.36 m/s, 182° | - | - |
| 1777953774 | 12.22° C | 88% | 1023.4 hPa | 0 mm | 5.81 m/s, 127° | - | - |
* Rain latest hour (hover to see other rain measurements)
** Current wind speed in m/s (hover to see current wind gust speed)